Regional Weather Roundup
Issued by NWS

Home | Current Version | Previous Version | Graphics & Text | Print | Product List | Glossary On
Versions: 1 2 3 4 5 6 7 8 9 10 11 12 13 14 15 16 17 18 19 20 21 22 23 24 25 26 27 28 29 30 31 32 33 34 35 36 37 38 39 40 41 42 43 44 45 46 47 48 49 50
000
ASUS43 KDMX 160501
RWRIA

WEATHER ROUNDUP FOR IOWA
NATIONAL WEATHER SERVICE DES MOINES IA
1100 PM CST FRI DEC 15 2017

NOTE: "FAIR" INDICATES FEW OR NO CLOUDS BELOW 12,000 FEET WITH NO
SIGNIFICANT WEATHER AND/OR OBSTRUCTIONS TO VISIBILITY.

* - THESE STATIONS ARE NOT NWS STATIONS...THUS NOT UNDER NWS
QUALITY CONTROL.  THEY ALSO DO NOT REPORT WEATHER SUCH
AS PRECIPITATION OR FOG.

IAZ001>003-012>014-020>022-031>034-043>046-160600-
   NORTHWEST IOWA

CITY           SKY/WX    TMP DP  RH WIND       PRES   REMARKS
CARROLL *      CLOUDY    37  25  60 SW20      29.70S WCI  27
CHEROKEE *     PTCLDY    32  25  76 S5        29.67F WCI  27
DENISON *      PTCLDY    36  25  64 SW7       29.72F WCI  30
LE MARS *      CLOUDY    34  27  75 S7        29.65F WCI  28
ORANGE CITY *  CLOUDY    34  28  80 SW6       29.65S WCI  29
SHELDON *      CLOUDY    36  28  75 SW10      29.63S WCI  28
SIOUX CITY     PTCLDY    34  24  67 S5        29.67F WCI  30
SPENCER        CLOUDY    39  27  62 SW10      29.65F WCI  32
STORM LAKE *   CLOUDY    34  25  69 S8        29.66F WCI  27
$$

IAZ055>058-069>071-079>083-090>094-160600-
   SOUTHWEST IOWA

CITY           SKY/WX    TMP DP  RH WIND       PRES   REMARKS
ATLANTIC *     CLOUDY    34  25  69 SW9       29.76S WCI  26
AUDUBON *      CLOUDY    37  25  60 S13G20    29.74F WCI  29
CLARINDA *       N/A     37  25  60 S9          N/A  WCI  31
COUNCIL BLFS * CLOUDY    39  25  56 SW13      29.74F WCI  32
CRESTON *      CLOUDY    36  25  64 SW13      29.79F WCI  27
HARLAN  *      CLOUDY    34  25  69 S8        29.77F WCI  27
LAMONI         CLOUDY    34  23  64 S14       29.81F WCI  25
RED OAK *      CLOUDY    37  25  60 S8        29.79R WCI  31
SHENANDOAH *   CLOUDY    39  25  56 SW12      29.80S WCI  32
$$

IAZ047>049-059>061-072>074-084-160600-
   CENTRAL IOWA

CITY           SKY/WX    TMP DP  RH WIND       PRES   REMARKS
AMES           CLOUDY    37  25  61 SW14      29.74F WCI  28
ANKENY *       CLOUDY    37  23  56 SW12      29.77F WCI  30
BOONE *        CLOUDY    36  25  64 SW13G20   29.72F WCI  27
CHARITON *     CLOUDY    37  23  56 SW15G22   29.80S WCI  28
DES MOINES     CLOUDY    37  23  56 SW13      29.77F WCI  29
GRINNELL*      CLOUDY    33  22  65 S9        29.79S WCI  25
KNOXVILLE *    CLOUDY    39  21  48 SW17      29.77F WCI  30
MARSHALLTOWN   CLOUDY    36  23  59 S14       29.74F WCI  27
NEWTON *       CLOUDY    36  23  60 SW16      29.77F WCI  26
PELLA *        CLOUDY    35  22  60 S7        29.81S WCI  29
PERRY *          N/A     32  22  66 S13       29.73F WCI  22
$$

IAZ004>006-015-016-023>025-035-036-160600-
   NORTH CENTRAL IOWA

CITY           SKY/WX    TMP DP  RH WIND       PRES   REMARKS
ALGONA *       CLOUDY    36  27  69 S10       29.67F WCI  28
CLARION *      CLOUDY    36  27  69 S10       29.70S WCI  28
ESTHERVILLE    CLOUDY    37  27  67 SW12      29.64F WCI  29
FORT DODGE *   PTCLDY    36  24  62 SW10      29.70S WCI  28
MASON CITY     CLOUDY    34  24  67 S8        29.70F WCI  27
FOREST CITY *    N/A     36  27  69 S6        29.68S WCI  31
WEBSTER CITY * CLOUDY    36  25  64 SW10      29.69S WCI  28
IOWA FALLS *     N/A     35  26  68 S12       29.73F WCI  27
$$

IAZ007>011-017>019-026>030-037>042-050>054-066-160600-
   NORTHEAST IOWA

CITY           SKY/WX    TMP DP  RH WIND       PRES   REMARKS
CEDAR RAPIDS   CLOUDY    36  22  56 S12       29.79F WCI  28
CHARLES CITY * CLOUDY    36  25  64 S9        29.72F WCI  29
CLINTON *      MOCLDY    36  22  56 SW17      29.85F WCI  26
DECORAH *      CLOUDY    36  27  69 S6        29.72F WCI  31
DUBUQUE        CLOUDY    35  23  61 SW14      29.80S WCI  26
MONTICELLO *   CLOUDY    34  23  64 S8        29.80F WCI  27
OELWEIN *      CLOUDY    36  25  64 S12       29.75F WCI  27
WATERLOO       CLOUDY    34  22  61 S9        29.74F WCI  27
$$

IAZ064-065-067-068-078-160600-
   EAST CENTRAL IOWA

CITY           SKY/WX    TMP DP  RH WIND       PRES   REMARKS
DAVENPORT      CLOUDY    35  21  56 S13       29.88S WCI  26
IOWA CITY      CLOUDY    37  23  56 S8        29.85F WCI  31
MT. PLEASANT * CLEAR     33  21  61 S12       29.87F WCI  24
MUSCATINE *    CLOUDY    37  21  52 S17       29.86F WCI  28
QUAD CITIES    CLOUDY    38  22  52 S14       29.86F WCI  30
$$

IAZ062-063-075>077-085>089-095>099-160600-
   SOUTHEAST IOWA

CITY           SKY/WX    TMP DP  RH WIND       PRES   REMARKS
BURLINGTON     CLEAR     34  23  64 S13       29.89F WCI  25
FAIRFIELD *    CLEAR     34  21  60 S10       29.84F WCI  26
FORT MADISON * CLEAR     36  23  60 S12       29.90S WCI  27
KEOKUK *       CLEAR     34  23  64 S12       29.91S WCI  25
OSKALOOSA *      N/A     35  23  61 SW10      29.82S WCI  27
OTTUMWA        CLOUDY    37  21  52 S15       29.83S WCI  28
WASHINGTON *   CLOUDY    36  23  60 SW15      29.85F WCI  26
$$

ABBREVIATIONS USED IN REMARKS
   TC - TEMPERATURES IN CELSIUS
  WCI - WIND CHILL INDEX
   HX - HEAT INDEX
  VSB - VISIBILITY
$$




USA.gov is the U.S. government's official web portal to all federal, state and local government web resources and services.